{"data":{"norad_id":58605,"intl_designator":"2023-200S","name":"STARLINK-31038","alt_names":[],"object_type":"PAYLOAD","status":"ACTIVE","operator":null,"country":"US","launch_date":"2023-12-19","launch_site_code":"AFETR","launch_vehicle":null,"mission":null,"orbit_class":"UNKNOWN","rcs_meters":null,"size_class":null,"mass_kg":null,"dimensions":null,"purposes":["comms"],"wikipedia_slug":null,"has_3d_model":false,"image_url":null,"decayed_at":null,"tle_current":{"epoch":"2026-05-25T03:02:54.576384Z","epoch_age_seconds":67367,"freshness":"FRESH","line1":"1 58605U 23200S   26145.12702056  .00047971  00000+0  15083-2 0  9998","line2":"2 58605  43.0001  96.0801 0004867 171.1399 188.9541 15.32225300135316","mean_motion":15.322253,"eccentricity":0.0004867,"inclination_deg":43.0001,"raan_deg":96.0801,"arg_perigee_deg":171.1399,"mean_anomaly_deg":188.9541,"bstar":0.0015083,"rev_number":13531,"period_min":93.980956978063,"perigee_km":465.8419641138,"apogee_km":472.5071371772,"semimajor_km":6847.3115506455,"source":"CELESTRAK","updated_at":"2026-05-25T13:38:18.702879Z"}}}